RH
61 53 56 65 58 60 65 61 48 43 44 38 37 43 46 60 55 57 59 56 59 58 59 65 82 81 80 81 82 82 81 79 79 79 77 76 76 75 75 76 72 71 70 74 75 73 72 70 70
46 52 54 60 79 80 70 57 47 45 37 36 41 46 51 71 68 76 64 59 57 55 54 56 83 82 80 82 82 81 77 75 79 78 78 77 76 76 76 74 75 74 72 69 71 74 74 71 68
46 49 43 59 68 77 69 59 50 48 38 36 48 49 58 73 70 63 57 57 56 57 54 58 82 82 79 79 80 80 78 75 75 75 76 75 75 73 72 71 72 75 73 74 69 70 70 71 70
43 46 57 60 59 62 64 54 44 45 43 41 44 61 62 60 63 58 57 56 55 56 51 69 81 79 78 78 78 76 76 74 74 73 72 72 70 69 70 74 75 71 68 71 73 68 73 75 70
42 51 64 62 59 57 54 51 50 47 47 46 44 65 70 69 58 58 59 53 52 52 50 57 78 79 79 78 75 75 74 74 74 74 72 70 68 68 69 68 67 69 74 70 67 69 69 71 71
40 42 54 57 57 53 50 45 48 47 47 46 49 58 77 67 63 58 55 54 49 51 50 56 74 77 77 74 74 74 74 74 74 73 70 70 72 72 72 72 70 70 68 69 73 71 68 68 70
35 47 55 54 56 57 52 47 49 48 47 49 45 65 78 73 59 56 56 55 52 52 53 54 55 68 74 74 74 74 73 74 73 71 72 73 72 70 70 70 70 69 69 70 69 71 74 73 71
43 39 52 54 57 55 49 46 44 46 53 41 43 67 82 75 59 57 62 59 56 55 54 57 52 54 61 59 73 72 74 73 73 71 73 72 70 70 70 69 70 68 68 68 69 70 72 72 72
38 38 47 44 54 52 47 50 43 41 44 50 49 52 52 65 58 61 75 70 63 62 55 57 58 60 66 71 72 71 73 73 73 76 74 79 67 66 62 64 68 71 69 69 71 70 72 72 72
29 39 37 33 39 48 47 46 47 49 52 58 61 58 62 62 61 59 63 69 63 64 62 63 63 60 63 64 79 75 72 76 92 91 91 93 79 69 62 61 67 67 69 69 71 73 73 68 52
31 35 32 29 36 41 47 44 46 48 53 51 59 66 63 66 61 54 49 51 50 52 58 61 64 72 72 69 82 82 98 98 97 93 95 86 74 60 59 64 55 58 71 61 71 66 55 52 55
31 28 28 39 43 44 48 44 49 44 46 43 48 53 60 62 58 50 46 47 50 54 58 58 60 78 73 77 88 97 98 99 99 97 88 83 77 75 87 79 76 68 58 69 69 60 64 69 67
26 32 39 41 42 42 44 48 49 47 48 46 50 56 58 53 49 44 42 44 48 52 53 56 62 78 81 91 94 97 93 97 97 89 79 77 65 64 65 68 62 67 61 63 68 64 62 64 61
28 35 38 40 42 43 44 50 46 51 49 54 56 56 53 52 49 47 47 53 56 55 55 54 62 69 74 79 90 98 94 95 93 74 61 64 57 64 60 64 61 63 64 82 66 73 67 63 56
27 40 38 39 42 45 41 53 51 52 50 57 55 55 54 53 52 56 51 55 58 59 60 61 64 60 73 76 96 90 96 76 66 63 65 66 65 67 74 70 68 61 73 92 76 66 70 65 62
30 31 39 43 42 48 41 41 53 52 54 56 55 56 57 54 51 53 52 52 55 60 66 65 58 59 65 70 78 80 90 89 71 69 61 63 69 74 73 65 62 80 89 90 84 64 65 67 66
28 31 37 46 41 44 43 42 48 50 49 52 52 52 53 54 54 52 50 54 52 60 65 67 66 64 68 76 71 76 76 72 68 66 60 66 70 71 74 67 65 82 74 90 92 82 88 66 80
34 32 36 38 40 43 46 40 47 49 48 48 49 48 50 48 47 48 49 50 58 59 66 66 64 69 74 72 76 69 73 74 74 65 61 66 68 72 75 78 80 86 92 88 82 85 82 85 89
20 23 29 29 33 40 42 41 36 46 46 46 48 46 44 44 38 41 46 50 51 56 64 66 69 72 74 77 80 74 75 72 71 72 71 69 67 74 77 66 70 87 80 85 81 70 74 79 83
20 22 21 23 29 36 42 40 35 45 44 41 44 46 42 39 39 42 44 47 48 54 61 67 70 74 76 71 74 71 70 90 71 70 72 71 70 72 78 84 90 84 89 85 85 86 87 75 66
20 20 21 19 33 35 38 36 39 36 41 42 40 38 38 37 36 39 45 43 47 53 61 66 72 73 76 75 73 80 80 82 78 81 69 68 72 69 75 82 99 98 96 94 86 85 83 88 78
18 19 18 31 29 29 32 28 42 39 42 44 40 40 38 38 38 37 42 44 44 49 54 61 70 73 73 78 76 84 71 84 88 70 71 69 73 72 74 81 92 98 99 99 84 85 85 88 91
17 17 17 26 28 30 34 29 24 42 41 39 40 36 38 36 34 36 39 40 45 46 54 60 72 74 74 79 79 78 82 71 67 67 78 78 75 75 72 77 79 93 87 94 86 83 79 79 94
14 14 16 22 19 23 22 27 19 19 31 38 34 36 35 38 36 37 39 41 50 50 56 61 74 78 79 79 83 86 88 83 74 73 82 89 69 70 81 79 74 71 71 77 77 80 80 79 78
14 13 20 20 20 19 21 29 19 25 33 37 38 36 34 38 45 42 47 50 54 57 59 58 70 77 79 80 82 84 85 87 85 80 66 74 75 66 75 85 81 64 70 73 74 76 79 79 76
20 16 16 27 21 18 30 23 15 30 36 39 43 43 44 49 48 46 49 53 56 57 63 60 69 76 80 81 88 89 88 85 83 78 74 76 94 70 72 74 76 73 73 72 74 65 70 76 76
14 19 14 16 19 18 19 25 24 31 33 42 50 53 54 52 52 64 58 56 56 60 68 63 66 72 80 80 89 90 91 89 87 86 84 84 85 82 76 76 76 76 74 77 79 66 70 72 71
11 12 14 16 24 24 23 36 22 25 33 49 53 54 61 58 58 60 55 54 56 56 74 71 78 79 88 84 86 82 83 86 85 85 91 88 88 96 92 84 78 75 78 80 83 74 77 80 71
15 13 17 14 17 18 19 19 29 35 46 54 54 52 57 62 63 65 70 71 65 62 68 77 82 84 93 85 90 91 92 91 87 88 91 88 87 91 97 88 79 79 79 77 79 80 76 74 73
20 20 15 15 29 29 24 18 32 51 51 52 60 66 67 66 67 65 65 69 71 69 73 77 80 82 86 91 88 93 95 94 86 87 92 93 92 95 96 87 84 76 69 74 74 68 63 67 66
Wind_Speed
7 9 5 2 1 2 4 5 1 12 8 4 14 3 4 5 0 3 11 12 20 18 16 16 17 17 17 17 17 17 17 17 15 13 13 12 10 11 11 11 10 9 9 9 11 10 12 12 14
8 9 1 1 4 2 4 3 10 4 8 15 8 7 4 4 4 11 15 19 20 18 16 16 17 17 17 17 17 17 17 17 15 14 13 13 11 10 10 10 10 9 10 9 10 9 10 10 10
6 0 2 3 3 2 3 2 6 8 12 14 5 6 3 4 6 18 14 21 20 18 16 16 17 17 17 17 16 16 16 16 15 13 13 12 10 9 9 10 9 9 8 8 9 8 8 9 9
2 2 3 3 5 3 2 7 13 10 7 4 10 8 6 2 14 8 21 20 19 18 17 17 18 19 17 16 15 15 15 15 14 13 13 12 10 8 7 7 7 9 8 7 8 8 6 7 9
1 1 4 4 4 2 2 2 2 4 5 6 2 6 7 2 9 19 20 18 19 18 16 17 16 16 17 16 15 15 14 13 13 12 11 10 9 8 7 6 5 6 5 7 7 6 6 6 7
1 1 3 3 3 3 3 5 3 5 7 9 12 8 4 8 17 19 18 17 17 17 16 16 15 15 14 14 14 14 13 12 12 11 10 9 8 7 6 4 4 4 5 4 5 7 7 6 6
2 2 2 2 1 3 4 6 2 6 10 6 9 6 5 10 16 17 16 15 15 15 14 15 15 15 15 14 13 13 13 12 11 10 9 8 7 5 4 5 5 5 6 6 6 5 5 5 7
2 1 2 1 1 3 7 4 6 6 5 13 6 7 8 14 18 16 14 14 14 14 14 13 14 14 12 12 14 14 13 13 12 11 8 7 6 6 5 3 5 6 7 7 8 7 6 6 7
1 1 1 1 3 4 11 6 4 5 11 5 3 5 13 21 19 17 14 13 12 12 14 14 14 12 12 9 9 12 13 12 11 8 7 3 2 3 4 2 4 7 7 8 8 8 7 7 7
1 1 3 2 5 6 10 11 9 6 10 5 10 13 20 21 20 19 17 15 16 16 15 13 13 13 12 9 8 9 9 6 4 2 3 3 3 4 3 4 5 7 9 10 9 9 9 8 5
3 3 2 1 5 13 13 8 4 11 7 8 16 20 20 20 18 18 17 17 17 16 13 14 13 11 10 8 6 4 2 3 1 4 4 4 3 4 3 3 4 4 6 6 7 7 7 6 5
3 3 2 3 8 9 12 11 5 8 0 10 19 22 21 19 19 19 17 16 16 16 14 13 13 10 12 6 5 2 3 3 1 3 3 4 2 3 3 3 5 4 5 6 5 4 6 6 6
5 3 6 6 7 7 11 5 2 8 7 15 18 18 19 18 17 15 14 14 14 15 14 14 13 11 10 6 4 3 4 3 5 4 4 2 4 4 4 5 6 5 5 4 5 5 5 6 7
4 11 11 7 8 5 6 4 0 5 13 15 18 17 16 16 17 14 15 14 15 13 14 14 14 12 11 9 6 4 4 5 4 5 6 6 6 5 6 6 7 6 5 4 4 5 6 6 7
7 10 8 8 5 3 6 4 1 10 12 15 16 16 15 15 14 16 16 15 14 13 11 14 13 12 12 10 5 6 5 7 7 7 8 8 7 6 6 5 6 7 5 4 6 6 6 6 6
2 3 4 5 7 4 3 0 3 12 13 14 14 15 15 17 17 15 14 14 13 11 13 12 11 13 13 11 9 7 5 5 6 6 5 7 8 7 7 6 6 6 4 4 4 5 6 6 7
1 3 4 4 8 6 5 1 6 12 12 12 13 14 14 13 14 14 15 14 13 13 12 13 13 13 13 11 9 9 7 7 7 6 6 8 7 7 6 5 6 7 5 7 3 7 6 6 6
3 3 5 7 11 8 8 8 10 14 13 13 13 14 14 14 17 15 15 13 12 12 12 12 11 12 11 8 7 6 7 7 6 7 7 8 6 7 7 6 7 7 5 6 6 7 5 4 3
2 5 8 7 8 12 13 9 10 15 14 13 13 13 14 15 14 12 14 14 14 14 13 14 13 12 9 7 6 7 8 6 6 7 10 9 8 8 8 7 7 6 7 7 5 6 8 5 2
5 3 6 7 9 12 5 13 10 15 20 17 15 15 16 15 12 12 14 14 15 15 15 15 14 13 12 9 6 5 4 4 6 6 8 10 10 10 8 8 6 8 6 8 8 7 3 4 5
6 4 1 4 5 5 1 7 11 12 16 16 16 16 15 16 15 13 14 15 13 14 16 15 14 14 13 12 6 4 3 2 5 5 6 7 10 10 9 8 3 2 4 8 9 6 6 5 4
1 5 5 3 4 1 5 4 5 6 13 16 19 17 17 17 15 13 15 14 15 14 13 14 14 14 12 12 9 10 8 6 3 3 4 4 7 9 8 7 4 5 5 8 9 6 5 4 5
2 2 3 3 4 3 5 4 2 1 10 17 18 19 18 19 17 15 16 16 13 11 13 12 12 12 11 12 11 9 10 8 6 4 5 4 4 6 6 5 4 3 6 8 8 7 7 4 3
2 3 5 4 2 3 2 6 7 5 2 2 6 17 17 14 13 11 11 11 11 11 13 12 12 11 11 12 13 13 11 10 8 6 7 4 2 3 5 6 5 5 5 6 5 6 6 5 6
4 1 2 3 4 1 3 5 8 5 3 5 8 7 12 10 11 10 11 12 12 13 10 11 12 12 12 12 10 10 9 8 10 8 6 6 4 4 4 7 6 4 4 5 5 5 5 5 6
4 2 7 4 3 2 1 5 4 3 3 7 9 3 4 8 11 12 11 6 7 9 11 12 10 11 13 12 10 7 8 6 6 8 7 6 5 4 4 5 6 6 5 4 3 5 5 5 6
6 12 2 3 1 4 2 4 12 3 1 10 11 9 7 8 8 10 9 8 9 7 4 8 8 9 9 9 8 8 8 6 2 4 5 5 4 5 5 5 5 5 5 4 4 3 4 4 5
4 8 7 3 4 5 3 4 5 4 7 10 9 9 9 9 10 8 8 9 7 6 6 4 8 11 11 12 8 7 9 8 6 4 6 5 4 1 7 9 6 5 4 4 3 2 3 4 4
6 5 3 3 2 4 4 3 4 4 7 9 8 7 9 10 9 9 8 7 7 7 7 6 6 7 6 7 4 8 7 7 6 6 7 7 6 4 3 18 7 5 4 3 2 3 2 3 4
0 1 5 6 6 1 3 4 1 1 6 8 11 10 8 9 9 8 8 9 9 8 7 6 6 5 1 3 5 9 6 10 8 4 5 4 9 3 9 10 7 6 5 4 4 3 2 4 5
Wind_Direction
148 150 161 176 99 65 69 52 51 119 142 166 154 204 147 44 13 77 147 143 141 142 144 140 130 126 123 122 120 118 120 122 124 127 129 128 134 141 145 139 124 122 117 111 110 109 110 112 113
134 141 160 308 69 53 86 3 116 118 134 138 132 120 70 85 64 125 136 148 145 143 146 142 135 132 131 126 124 125 127 127 130 135 134 130 132 130 131 126 130 129 127 118 112 110 106 114 111
143 84 291 53 73 63 91 71 100 103 137 158 112 59 52 46 111 143 133 147 146 147 146 141 136 135 133 130 130 129 131 132 132 131 128 130 129 131 136 131 127 118 121 128 124 117 130 129 127
160 136 83 69 84 84 87 109 114 120 114 109 110 78 83 58 141 143 146 150 147 150 150 144 141 141 140 138 138 138 137 139 140 142 141 138 138 142 137 126 130 132 126 127 125 134 129 117 134
123 117 70 91 80 118 200 174 149 124 117 99 109 100 102 41 130 144 148 153 152 153 150 150 148 146 146 147 147 145 144 145 147 148 147 145 151 156 151 156 155 140 141 151 145 147 148 138 138
132 291 70 81 85 153 167 164 170 115 111 116 108 106 75 121 137 148 152 154 156 156 155 152 154 151 149 151 155 154 155 156 156 155 153 156 162 168 169 175 181 173 174 173 170 170 164 170 177
40 65 76 112 72 161 132 140 150 125 127 112 131 88 108 150 148 151 155 151 160 160 161 161 161 160 161 166 167 167 168 166 166 165 168 164 157 177 181 198 207 206 200 195 197 193 174 186 193
91 73 148 148 179 85 135 123 141 129 80 123 147 155 168 163 154 149 154 156 162 171 170 170 170 171 172 174 178 179 178 175 175 176 169 171 175 194 191 220 232 222 217 206 203 206 206 200 206
103 92 242 213 183 112 144 123 139 85 137 76 30 134 138 153 149 153 153 160 167 183 182 180 181 180 181 185 192 188 184 183 183 176 171 151 194 177 187 231 273 262 233 231 205 205 206 210 217
210 229 219 219 168 145 148 142 144 137 141 73 86 104 133 148 156 166 170 171 181 186 190 190 191 191 188 191 202 188 187 179 115 123 144 195 203 209 215 244 300 268 247 236 229 219 200 211 214
173 250 186 209 148 146 146 135 153 153 182 177 155 143 149 157 168 175 182 183 189 190 191 196 195 199 193 202 201 184 104 118 142 190 178 182 189 212 234 269 275 273 247 239 230 224 224 224 216
240 287 147 135 145 141 158 143 151 173 271 158 159 153 155 167 176 181 184 189 193 196 200 196 199 198 202 194 190 167 118 108 236 237 228 199 185 240 275 269 270 272 242 228 223 223 222 225 228
228 105 68 128 132 123 136 144 104 174 105 132 147 158 166 174 179 185 187 195 198 199 201 206 204 202 207 198 206 143 174 169 187 216 200 185 227 243 257 267 269 278 236 233 234 227 226 221 229
109 113 117 114 125 134 147 117 201 123 136 139 156 168 181 180 181 179 195 199 203 204 204 206 208 208 208 215 207 177 182 194 189 205 215 226 248 254 265 260 256 258 232 225 238 230 229 219 221
127 99 102 110 129 139 131 139 252 146 155 154 168 179 188 192 187 195 200 204 204 204 205 208 209 210 212 220 183 212 198 209 205 213 218 231 244 256 268 260 262 262 228 250 252 241 239 240 225
62 108 177 137 162 148 252 196 146 160 161 171 177 186 197 199 201 203 205 212 206 204 200 206 206 209 210 220 220 207 214 230 231 231 236 240 241 233 232 248 252 250 246 236 251 248 241 230 227
72 217 214 174 191 170 225 110 166 176 183 182 191 192 201 210 212 210 210 213 213 204 200 203 208 213 208 215 230 232 232 229 237 236 242 243 235 227 225 234 245 249 240 232 219 241 238 236 227
213 235 208 210 198 214 207 237 171 185 196 197 198 201 204 209 218 209 216 213 212 205 209 207 206 213 213 214 218 231 238 230 231 245 243 241 233 224 225 226 245 252 246 245 223 241 244 254 280
234 247 255 229 185 209 229 231 212 190 204 209 205 210 215 215 221 208 210 208 207 206 202 212 204 206 204 206 216 232 234 232 230 235 245 240 240 238 235 247 241 236 251 257 256 259 252 239 241
245 224 264 290 186 203 206 243 229 194 209 210 208 214 217 229 218 211 210 203 205 205 207 210 210 204 206 209 215 225 227 230 249 224 227 232 235 236 226 244 255 260 259 259 248 235 256 244 200
205 223 241 297 82 165 189 264 229 215 217 208 219 221 226 225 224 213 214 212 205 207 205 209 203 206 207 210 208 199 210 216 240 221 228 224 230 236 236 236 215 268 302 287 266 242 228 272 223
258 198 170 168 190 272 232 297 244 240 224 213 217 216 218 224 226 220 213 211 209 211 209 208 200 207 205 199 209 214 229 233 240 280 249 220 222 236 236 250 208 183 203 243 264 235 236 224 252
1 195 61 191 142 269 179 265 308 323 241 234 223 225 220 223 218 214 213 214 208 203 201 206 204 203 205 201 208 209 222 233 235 245 259 246 238 237 240 234 246 229 216 227 232 236 235 226 232
139 83 80 87 217 256 20 246 288 271 360 356 267 235 232 222 222 218 215 207 201 199 195 200 196 199 209 205 205 210 211 225 235 225 254 244 259 238 236 208 219 214 229 242 246 244 247 239 238
77 271 215 179 192 311 6 212 274 275 337 294 315 294 245 208 180 187 193 197 197 195 201 198 201 203 205 214 215 217 229 235 257 255 252 264 246 263 240 222 215 223 235 256 241 229 244 242 253
158 284 294 273 246 122 149 225 260 338 328 349 18 5 128 163 165 181 178 186 199 193 204 212 205 203 201 204 194 200 224 229 239 257 262 270 283 247 248 225 231 223 223 244 239 230 221 219 247
140 205 239 139 107 237 175 252 274 314 325 63 66 81 106 137 130 111 116 129 122 114 132 216 217 220 204 189 177 169 165 149 156 228 218 257 245 256 260 237 227 216 195 196 187 231 256 262 243
233 138 176 221 222 249 185 267 254 317 54 71 76 93 113 122 124 113 104 106 99 92 105 142 168 175 168 169 175 156 154 158 164 119 90 55 4 335 331 276 214 187 189 185 201 201 217 258 280
153 182 73 105 297 265 268 238 218 241 52 82 92 89 107 122 112 102 92 101 117 117 101 112 148 165 143 165 176 181 203 226 196 176 143 110 54 239 156 267 193 179 187 148 188 217 224 257 282
120 203 207 253 178 46 320 257 115 98 99 121 112 103 103 134 140 138 139 140 144 130 133 142 162 165 82 1 304 264 223 227 254 178 152 128 76 45 241 182 174 164 171 162 172 232 265 282 291